Regional Weather Roundup
Issued by NWS Sterling, VA

Home | Current Version | Previous Version | Graphics & Text | Print | Product List | Glossary On
Versions: 1 2 3 4 5 6 7 8 9 10 11 12 13 14 15 16 17 18 19 20 21 22 23 24 25 26 27 28 29 30 31 32 33 34 35 36 37 38 39 40 41 42 43 44 45 46 47 48 49 50
000
ASUS41 KLWX 281611
RWRLWX

REGIONAL WEATHER ROUNDUP
NATIONAL WEATHER SERVICE BALTIMORE MD/WASHINGTON DC
1200 PM EDT WED SEP 28 2016

Note: "FAIR" indicates few or no clouds below 12,000 feet
with no significant weather and/or obstructions to visibility.
 TC=TEMPERATURE CELSIUS

 * =Non NWS site. Station does not report precipitation (e.g. rain,
    snow, etc.), thunder, or fog.

DCZ001-MDZ009-015-VAZ040>042-051-053>054-281700-
WASHINGTON METRO

CITY           SKY/WX    TMP DP  RH WIND       PRES   REMARKS
WASHINGTON NAT CLOUDY    68  65  90 NE12      30.01S
DULLES         RAIN      64  61  90 E7        30.02R FOG
ANDREWS AFB    CLOUDY    66  64  94 E10       29.99F
FT BELVOIR     CLOUDY    66  63  88 VRB3      30.00S
QUANTICO       LGT RAIN  67  63  87 E8        30.00S
COLLEGE PARK*  CLOUDY    64  61  88 E6        30.02R
LEESBURG*      CLOUDY    68  63  83 E8        30.03S
MANASSAS*      HVY RAIN  64  63  94 NE7       30.00S FOG
GAITHERSBURG*  CLOUDY    63  57  82 E5        30.08R

$$

MDZ006>007-011-014-281700-
BALTIMORE METRO

CITY           SKY/WX    TMP DP  RH WIND       PRES   REMARKS
BWI AIRPORT    CLOUDY    66  63  90 E10       30.03R
MD SCIENCE CTR   N/A     68  61  78 MISG      30.04R
MARTIN STATE   CLOUDY    68  64  88 E10G16    30.04F
ANNAPOLIS      RAIN      67  64  90 SE3       30.03R FOG
FORT MEADE*    CLOUDY    64  63  94 E7        30.06R

$$

MDZ012-015-019>023-281700-
MARYLAND EASTERN SHORE

CITY           SKY/WX    TMP DP  RH WIND       PRES   REMARKS
OCEAN CITY     CLOUDY    73  67  81 NE9       30.03R
SALISBURY      CLOUDY    72  66  81 NE15      30.02R
BAY BRIDGE AP* TSTM      64  64 100 MISG      30.02R FOG
CAMBRIDGE*     CLOUDY    64  64 100 E9G17     30.00F
EASTON*        PTSUNNY   68  64  88 SE13G20   30.02F

$$

MDZ017>025-281700-
SOUTHERN MARYLAND

CITY           SKY/WX    TMP DP  RH WIND       PRES   REMARKS
PATUXENT RIVER LGT RAIN  68  65  90 E13       29.99S FOG
ST INIGOES     TSTM      68  66  93 E8        30.00R FOG
LEONARDTOWN*   CLOUDY    66  63  88 E6        30.01S

$$

MDZ003>005-281700-
NORTH CENTRAL MARYLAND

CITY           SKY/WX    TMP DP  RH WIND       PRES   REMARKS
FREDERICK*     CLOUDY    68  61  77 E5        30.06R
HAGERSTOWN APT CLOUDY    70  54  56 E6        30.02F

$$

MDZ501>502-281700-
WESTERN MARYLAND

CITY           SKY/WX    TMP DP  RH WIND       PRES   REMARKS
OAKLAND*         N/A     54  52  94 SE20G29   30.02S FOG
CUMBERLAND*    MOSUNNY   63  52  67 S3        30.06S

$$

VAZ025>031-281700-
SHENANDOAH VALLEY

CITY           SKY/WX    TMP DP  RH WIND       PRES   REMARKS
WINCHESTER*    CLOUDY    63  61  94 CALM      30.02R FOG
FRONT ROYAL*   CLOUDY    63  59  88 CALM      30.02S
LURAY*         CLOUDY    64  64 100 N8        30.01R
NEW MARKET*    CLOUDY   N/A N/A N/A NE6       30.00S
STAUNTON*      CLOUDY    65  60  82 CALM      30.02S
WAYNESBORO*    CLOUDY    65  60  85 CALM      30.01S

$$

WVZ021-048>050-054>055-281700-
EASTERN WEST VIRGINIA PANHANDLE

CITY           SKY/WX    TMP DP  RH WIND       PRES   REMARKS
MARTINSBURG    CLOUDY    64  58  80 CALM      30.02S
PETERSBURG*    CLOUDY    63  47  56 N3        30.01F

$$

VAZ036>039-050-281700-
CENTRAL FOOTHILLS

CITY           SKY/WX    TMP DP  RH WIND       PRES   REMARKS
CHARLOTTESVILL CLOUDY    67  64  90 NE9       29.99R FOG
CULPEPER*      RAIN      66  65  98 E3        30.01S
ORANGE*          N/A     66  66 100 CALM      30.01R FOG
GORDONSVILLE*  CLOUDY    66  66 100 NE6       29.98S FOG
WARRENTON*     DRIZZLE   66  61  84 NE6       29.99F

$$

VAZ055>057-281700-
NORTH AND CENTRAL PIEDMONT

CITY           SKY/WX    TMP DP  RH WIND       PRES   REMARKS
FREDERICKSBRG* CLOUDY    67  67 100 E10       29.99R
STAFFORD*      CLOUDY    65  65  98 E6        30.03S FOG

$$

NCZ024-NYZ072-PAZ021-071-VAZ022-071-281700-
OTHER REGIONAL OBSERVATIONS

CITY           SKY/WX    TMP DP  RH WIND       PRES   REMARKS
NEW YORK CITY  CLOUDY    67  58  72 E10G26    30.15R
PHILADELPHIA   RAIN      67  63  87 NE12      30.07S FOG
PITTSBURGH     MOSUNNY   69  47  45 SE12G21   29.94F
ROANOKE        CLOUDY    69  57  65 N6        30.00R
RICHMOND       CLOUDY    74  70  87 SE7       29.97S
RALEIGH        PTSUNNY   81  69  67 S7        29.97S

$$

ANZ530>537-281700-
MARINE OBSERVATIONS

STATION/POSITION TIME  TEMP    WIND        PRES
                       AIR SEA DIR/SP/G
                 (UTC) (F)     (DEG/KT/KT) (MB)
THOMAS PT LIGHT  1600   66 74   50/  6/  7 1017.7R
BALT KEY BRIDGE  1542   67      80/ 16/ 17 1016.6R
COVE POINT       1542   67     120/ 13/ 20 1016.5R
LEWISETTA        1542   67 74   40/  9/ 13 1015.1F
SOLOMONS ISLAND  1542   68 75   70/ 20/ 22   N/A
PINEY POINT      1548           90/  7/  9   N/A

$$




USA.gov is the U.S. government's official web portal to all federal, state and local government web resources and services.